Sedona, Arizona, United States (86336)
Lat: 34.87N, Lon: 111.76W
Wx Zone: AZZ038
Local Info
Past Weather Observations for Today

NOTE: This archive is for the closest National Weather Service station to Sedona. Information may differ from the station used for current weather conditions.

Click here for Long-term Archive

Time Weather Temperature Dewpoint Humidity Pressure Winds Precip Visibility
12:50
Overcast
Light Rain
39°F / 4°C 37°F / 3°C 93% 29.95 in
(1014 mb)
ENE 5.8 mph
(ENE 9 kph)
0.04 in
(1.02 mm)
1 3/4SM
12:37
Overcast
Light Rain
37°F / 3°C 37°F / 3°C 100% 29.98 in
(1015 mb)
ENE 4.6 mph
(ENE 7 kph)
0.03 in
(0.76 mm)
7SM
12:26
Overcast
Light Rain
37°F / 3°C 37°F / 3°C 100% 29.98 in
(1015 mb)
ENE 6.9 mph
(ENE 11 kph)
0.03 in
(0.76 mm)
2SM
12:21
Overcast
Light Rain
37°F / 3°C 37°F / 3°C 100% 29.98 in
(1015 mb)
ENE 6.9 mph
(ENE 11 kph)
0.03 in
(0.76 mm)
1 3/4SM
11:57
Overcast
Light Rain
37°F / 3°C 36°F / 2°C 93% 30.01 in
(1016 mb)
ENE 5.8 mph
(ENE 9 kph)
0.05 in
(1.27 mm)
4SM
11:46
Overcast
Light Rain
37°F / 3°C 36°F / 2°C 93% 30.01 in
(1016 mb)
ENE 9.2 mph
(ENE 15 kph)
0.05 in
(1.27 mm)
9SM
11:37
Overcast
Light Rain
37°F / 3°C 36°F / 2°C 93% 30.01 in
(1016 mb)
ENE 8.1 mph
(ENE 13 kph)
0.04 in
(1.02 mm)
2SM
11:34
Overcast
Light Rain
37°F / 3°C 36°F / 2°C 93% 30.01 in
(1016 mb)
ENE 6.9 mph
(ENE 11 kph)
0.03 in
(0.76 mm)
1 1/2SM
11:25
Overcast
Light Rain
37°F / 3°C 36°F / 2°C 93% 30.01 in
(1016 mb)
ENE 5.8 mph
(ENE 9 kph)
0.02 in
(0.51 mm)
2 1/2SM
11:09
Overcast
Light Rain
37°F / 3°C 36°F / 2°C 93% 30.01 in
(1016 mb)
ENE 5.8 mph
(ENE 9 kph)
0.01 in
(0.25 mm)
1 1/4SM
10:57
Overcast
Light Rain
37°F / 3°C 36°F / 2°C 93% 30.01 in
(1016 mb)
ENE 6.9 mph
(ENE 11 kph)
0.02 in
(0.51 mm)
2 1/2SM
10:39
Overcast
Light Rain
37°F / 3°C 36°F / 2°C 93% 30.01 in
(1016 mb)
ENE 8.1 mph
(ENE 13 kph)
0.02 in
(0.51 mm)
2 1/2SM
10:13
Overcast
Light Rain
37°F / 3°C 36°F / 2°C 93% 30.01 in
(1016 mb)
ENE 5.8 mph
(ENE 9 kph)
0.00 in
(0.00 mm)
1 3/4SM
10:05
Overcast
Light Rain
37°F / 3°C 36°F / 2°C 93% 30.01 in
(1016 mb)
ENE 5.8 mph
(ENE 9 kph)
0.00 in
(0.00 mm)
5SM
09:57
Overcast
Light Rain
37°F / 3°C 36°F / 2°C 93% 30.01 in
(1016 mb)
ENE 6.9 mph
(ENE 11 kph)
0.02 in
(0.51 mm)
2 1/2SM
09:50
Overcast
Light Rain
37°F / 3°C 36°F / 2°C 93% 30.01 in
(1016 mb)
ENE 8.1 mph
(ENE 13 kph)
0.02 in
(0.51 mm)
1 1/2SM
09:34
Overcast
Light Rain
37°F / 3°C 36°F / 2°C 93% 30.01 in
(1016 mb)
ENE 8.1 mph
(ENE 13 kph)
0.01 in
(0.25 mm)
2SM
09:29
Overcast
Light Rain
37°F / 3°C 36°F / 2°C 93% 30.01 in
(1016 mb)
ENE 6.9 mph
(ENE 11 kph)
0.01 in
(0.25 mm)
1 1/4SM
09:15
Overcast
Light Rain
37°F / 3°C 36°F / 2°C 93% 30.01 in
(1016 mb)
ENE 6.9 mph
(ENE 11 kph)
0.01 in
(0.25 mm)
2SM
08:57
Overcast
Unknown Precip
36°F / 2°C 36°F / 2°C 100% 30.01 in
(1016 mb)
ENE 9.2 mph
(ENE 15 kph)
0.04 in
(1.02 mm)
1SM
08:06
Overcast
Light Rain
36°F / 2°C 36°F / 2°C 100% 30.01 in
(1016 mb)
ENE 5.8 mph
(ENE 9 kph)
0.00 in
(0.00 mm)
1 1/2SM
07:53
Overcast
Light Rain
36°F / 2°C 36°F / 2°C 100% 30.04 in
(1017 mb)
ENE 8.1 mph
(ENE 13 kph)
0.03 in
(0.76 mm)
3SM
07:52
Overcast
Light Rain
36°F / 2°C 36°F / 2°C 100% 30.04 in
(1017 mb)
NE 6.9 mph
(NE 11 kph)
0.03 in
(0.76 mm)
3SM
07:44
Overcast
Light Rain
36°F / 2°C 36°F / 2°C 100% 30.04 in
(1017 mb)
ENE 5.8 mph
(ENE 9 kph)
0.02 in
(0.51 mm)
1 1/2SM
07:21
Obscured
Light Rain
36°F / 2°C 36°F / 2°C 100% 30.04 in
(1017 mb)
ENE 5.8 mph
(ENE 9 kph)
0.00 in
(0.00 mm)
3/4SM
07:04
Obscured
Light Rain
37°F / 3°C 36°F / 2°C 93% 30.04 in
(1017 mb)
ENE 6.9 mph
(ENE 11 kph)
0.00 in
(0.00 mm)
1SM
06:57
Overcast
Light Rain
37°F / 3°C 36°F / 2°C 93% 30.04 in
(1017 mb)
ENE 8.1 mph
(ENE 13 kph)
0.03 in
(0.76 mm)
1SM
06:48
Overcast
Light Rain
37°F / 3°C 36°F / 2°C 93% 30.04 in
(1017 mb)
ENE 8.1 mph
(ENE 13 kph)
0.03 in
(0.76 mm)
1 1/4SM
06:33
Overcast
Light Rain
37°F / 3°C 36°F / 2°C 93% 30.04 in
(1017 mb)
E 9.2 mph
(E 15 kph)
0.02 in
(0.51 mm)
1 3/4SM
05:57
Overcast
Light Rain
37°F / 3°C 36°F / 2°C 93% 30.04 in
(1017 mb)
Variable 5.8 mph
(Variable 9 kph)
0.07 in
(1.78 mm)
7SM
04:57
Overcast
Light Rain
37°F / 3°C 36°F / 2°C 93% 30.04 in
(1017 mb)
ENE 8.1 mph
(ENE 13 kph)
0.06 in
(1.52 mm)
6SM
03:57
Overcast
Light Rain
37°F / 3°C 36°F / 2°C 93% 30.06 in
(1018 mb)
ENE 6.9 mph
(ENE 11 kph)
0.06 in
(1.52 mm)
7SM
03:40
Overcast
Light Rain
37°F / 3°C 36°F / 2°C 93% 30.06 in
(1018 mb)
Calm 0.04 in
(1.02 mm)
6SM
03:26
Overcast
Light Rain
37°F / 3°C 36°F / 2°C 93% 30.06 in
(1018 mb)
NE 6.9 mph
(NE 11 kph)
0.03 in
(0.76 mm)
6SM
03:07
Overcast
Light Rain
37°F / 3°C 36°F / 2°C 93% 30.09 in
(1019 mb)
ENE 6.9 mph
(ENE 11 kph)
0.01 in
(0.25 mm)
5SM
02:57
Overcast
Light Rain
37°F / 3°C 36°F / 2°C 93% 30.09 in
(1019 mb)
E 9.2 mph
(E 15 kph)
0.05 in
(1.27 mm)
6SM
01:57
Overcast
Light Rain
37°F / 3°C 36°F / 2°C 93% 30.12 in
(1020 mb)
ENE 10.4 mph
(ENE 17 kph)
0.06 in
(1.52 mm)
8SM
00:57
Overcast
Light Rain
37°F / 3°C 36°F / 2°C 93% 30.12 in
(1020 mb)
E 6.9 mph
(E 11 kph)
0.06 in
(1.52 mm)
7SM
00:04
Overcast
Light Rain
37°F / 3°C 36°F / 2°C 93% 30.15 in
(1021 mb)
ENE 9.2 mph
(ENE 15 kph)
0.01 in
(0.25 mm)
7SM
Time Weather Temperature Dewpoint Humidity Pressure Winds Precip Visibility


Weather for websites

WeatherForYou.com, LLC is not responsible for any damages or problems caused by this service. Current weather conditions are obtained from the closest station including government and personal stations which may have varying degrees of accuracy. Weather forecasts are derived from the NOAA NDFD. Like all things, this site belongs to Jesus Christ... He just trusts me to maintain it. If you have any questions or comments email webmaster@weatherforyou.com

Copyright © 2015, WeatherForYou.com LLC. All rights reserved.